Voltar ao catálogo

CZ-6A DEB

AtivoSSO
NORAD 55863·DEBRIS·🇨🇳 China

Lançado Nov 11, 2022 de Taiyuan Satellite Launch Center

Loading…

Próximas Passagens (próximas 24 horas)

TLE

AtualizadoSource: Space-Track

Época: Sep 13, 2026, 10:15 UTC

1 55863U 22151ZK  26256.42759439  .00001458  00000-0  76017-3 0  9994
2 55863  98.8333 254.6461 0055238  79.1692 281.5692 14.15287692191120

Acompanhe CZ-6A DEB em tempo real com AllMySat

Download on the App Store